Location: ????????
(37.6846°N, 24.0673°E)
Time: 14:34:41
(UTC+00:00)

USA 238 - Pass Details

Date: 14 July 2020
Orbit: 1009 x 1203 km, 63.4° (Epoch: 02 August)

Event Time Altitude Azimuth Distance (km) Brightness Sun altitude
Exits shadow 01:11:03 21° 176° (S) 2,108 4.8 -19.6°
Maximum altitude 01:15:07 45° 114° (ESE) 1,370 4.4 -19.1°
Drops below altitude 10° 01:21:28 10° 45° (NE) 2,879 7.2 -18.2°
Sets 01:24:16 0° 39° (NE) 3,865 8.4 -17.9°
